Location: A�t Lahcen
(32.8243°N, 5.4246°W)
Time: 01:34:20
(UTC+00:00)

Meteor 2-19 Rocket - Pass Details

Date: 27 January 2021
Orbit: 935 x 959 km, 82.5° (Epoch: 27 February)

Event Time Altitude Azimuth Distance (km) Brightness Sun altitude
Rises 06:26:14 0° 351° (N) 3,621 7.2 -11.5°
Reaches altitude 10° 06:28:45 10° 350° (N) 2,669 6.6 -11.0°
Maximum altitude 06:34:50 77° 266° (W) 968 4.4 -9.8°
Drops below altitude 10° 06:40:51 10° 181° (S) 2,640 7.0 -8.6°
Sets 06:43:19 0° 180° (S) 3,579 7.7 -8.1°
